This demonstration page uses our WeatherBlox Daily Observations layout. Learn more.

40.92945, -100.16068

Hourly Observations for March 20, 2020

Temp ( °F °C ) Dew Point ( °F °C ) Humidity (%) Winds ( mph kmh ) Pressure ( in mb ) Visibility ( mi km ) Precip ( " mm )
12:15 am 00:15 Cloudy 25 -3.8 22 -5.3 89 89 N 30 48 30.39 1029 N/A 0 0
12:35 am 00:35 Cloudy 25 -4.1 22 -5.7 89 89 N 25 41 30.41 1030 N/A 0 0
12:55 am 00:55 Cloudy 24 -4.3 21 -5.9 89 89 N 26 43 30.43 1031 N/A 0 0
1:15 am 01:15 Cloudy 24 -4.5 21 -5.9 90 90 N 28 44 30.44 1031 N/A 0 0
1:35 am 01:35 undefined 24 -4.7 20 -6.5 87 87 N 28 44 30.46 1031 N/A 0 0
1:55 am 01:55 Cloudy 23 -4.9 20 -6.5 89 89 N 30 48 30.48 1032 N/A 0 0
2:15 am 02:15 Cloudy 23 -5.2 19 -7.1 87 87 N 26 43 30.5 1033 N/A 0 0
2:35 am 02:35 Cloudy 22 -5.6 18 -7.7 85 85 N 29 46 30.53 1034 N/A 0 0
2:55 am 02:55 undefined 21 -6.2 17 -8.5 84 84 N 26 43 30.55 1035 N/A 0 0
3:15 am 03:15 undefined 20 -6.5 16 -9 83 83 N 18 30 30.58 1035 N/A 0 0
3:35 am 03:35 Clear 20 -6.6 15 -9.3 81 81 NNW 30 48 30.59 1036 N/A 0 0
3:55 am 03:55 Clear 19 -7 14 -9.9 80 80 NNW 24 39 30.61 1037 N/A 0 0
4:15 am 04:15 Clear 19 -7.1 14 -10 80 80 NNW 23 37 30.62 1037 N/A 0 0
4:35 am 04:35 Clear 18 -7.7 11 -11.6 74 74 NNW 24 39 30.63 1037 N/A 0 0
4:55 am 04:55 Clear 17 -8.2 10 -12 74 74 NNW 23 37 30.64 1038 10 16.0934 0 0
5:15 am 05:15 Clear 17 -8.5 9 -13 70 70 NNW 18 30 30.67 1039 10 16.0934 0 0
5:35 am 05:35 Clear 16 -8.8 9 -13 72 72 NNW 16 26 30.67 1039 10 16.0934 0 0
5:55 am 05:55 Clear 16 -9.1 8 -13.2 72 72 N 20 31 30.66 1038 10 16.0934 0 0
6:15 am 06:15 Clear 15 -9.4 7 -14 70 70 N 18 30 30.7 1040 10 16.0934 0 0
6:35 am 06:35 Clear 14 -9.8 6 -14.3 70 70 N 16 26 30.7 1040 10 16.0934 0 0
6:55 am 06:55 Clear 14 -10.1 6 -14.5 70 70 N 17 28 30.7 1040 10 16.0934 0 0
7:15 am 07:15 Clear 14 -10.2 6 -14.7 70 70 N 17 28 30.7 1039 10 16.0934 0 0
7:35 am 07:35 Clear 13 -10.5 6 -14.3 74 74 N 17 28 30.7 1040 10 16.0934 0 0
7:55 am 07:55 Sunny 13 -10.5 7 -14 76 76 N 17 28 30.69 1039 10 16.0934 0 0
8:15 am 08:15 Sunny 13 -10.4 7 -14 75 75 N 17 28 30.71 1040 10 16.0934 0 0
8:35 am 08:35 Sunny 14 -10.1 7 -13.9 74 74 N 15 24 30.72 1040 10 16.0934 0 0
8:55 am 08:55 Sunny 14 -10 8 -13.5 76 76 N 15 24 30.73 1041 10 16.0934 0 0
9:15 am 09:15 Sunny 15 -9.6 8 -13.6 73 73 N 17 28 30.73 1041 10 16.0934 0 0
9:35 am 09:35 Sunny 15 -9.3 8 -13.5 72 72 N 20 31 30.75 1041 10 16.0934 0 0
9:55 am 09:55 Sunny 16 -9 7 -14 67 67 N 15 24 30.76 1042 10 16.0934 0 0
10:15 am 10:15 Sunny 17 -8.5 7 -13.8 66 66 N 12 19 30.77 1042 10 16.0934 0 0
10:35 am 10:35 Sunny 17 -8.5 6 -14.4 63 63 N 15 24 30.78 1042 10 16.0934 0 0
10:55 am 10:55 Sunny 18 -8 7 -13.8 63 63 N 12 19 30.79 1043 10 16.0934 0 0
11:15 am 11:15 Sunny 18 -7.8 7 -14 61 61 N 12 19 30.8 1043 10 16.0934 0 0
11:35 am 11:35 Sunny 19 -7.5 8 -13.5 63 63 N 12 19 30.79 1043 10 16.0934 0 0
11:55 am 11:55 Sunny 19 -7.5 8 -13.6 62 62 N 9 15 30.79 1043 10 16.0934 0 0
12:15 pm 12:15 Sunny 19 -7.1 8 -13.5 61 61 N 6 9 30.79 1043 10 16.0934 0 0
12:35 pm 12:35 Sunny 19 -7 7 -13.8 59 59 NNE 7 11 30.78 1042 10 16.0934 0 0
12:55 pm 12:55 Sunny 20 -6.6 8 -13.1 60 60 N 6 9 30.78 1042 10 16.0934 0 0
1:15 pm 13:15 Sunny 20 -6.4 9 -13 60 60 NNW 7 11 30.77 1042 10 16.0934 0 0
1:35 pm 13:35 Sunny 21 -6 10 -12.4 61 61 NNW 5 7 30.75 1041 10 16.0934 0 0
1:55 pm 13:55 Sunny 22 -5.6 10 -12.2 60 60 N 6 9 30.75 1041 10 16.0934 0 0
2:15 pm 14:15 Sunny 22 -5.5 10 -12.3 59 59 N 5 7 30.74 1041 10 16.0934 0 0
2:35 pm 14:35 Sunny 23 -5.1 11 -11.7 60 60 N 5 7 30.72 1040 10 16.0934 0 0
2:55 pm 14:55 Sunny 23 -4.8 11 -11.8 58 58 N 6 9 30.71 1040 10 16.0934 0 0
3:15 pm 15:15 Sunny 25 -4.1 13 -10.5 61 61 N 6 9 30.69 1039 10 16.0934 0 0
3:35 pm 15:35 Sunny 25 -4 12 -10.9 59 59 N 7 11 30.68 1039 10 16.0934 0 0
3:55 pm 15:55 Sunny 26 -3.6 13 -10.5 59 59 N 5 7 30.67 1038 10 16.0934 0 0
4:15 pm 16:15 Sunny 26 -3.5 13 -10.8 57 57 N 5 7 30.65 1038 10 16.0934 0 0
4:35 pm 16:35 Sunny 26 -3.3 14 -10.2 59 59 NNE 5 7 30.64 1038 10 16.0934 0 0
4:55 pm 16:55 Sunny 26 -3.1 13 -10.6 57 57 NNE 5 7 30.63 1037 10 16.0934 0 0
5:15 pm 17:15 Sunny 27 -3 14 -10.1 58 58 NE 6 9 30.63 1037 10 16.0934 0 0
5:35 pm 17:35 Sunny 28 -2.5 16 -8.7 63 63 ENE 8 13 30.61 1037 10 16.0934 0 0
5:55 pm 17:55 Sunny 27 -2.7 16 -8.9 63 63 E 8 13 30.61 1036 10 16.0934 0 0
6:15 pm 18:15 Sunny 27 -3 15 -9.2 63 63 E 8 13 30.61 1037 10 16.0934 0 0
6:35 pm 18:35 Sunny 27 -2.9 17 -8.6 65 65 ENE 7 11 30.61 1037 10 16.0934 0 0
6:55 pm 18:55 Sunny 26 -3.1 16 -8.9 65 65 E 8 13 30.61 1037 10 16.0934 0 0
7:15 pm 19:15 Sunny 26 -3.6 16 -8.9 67 67 ENE 7 11 30.62 1037 10 16.0934 0 0
7:35 pm 19:35 Sunny 25 -4 16 -8.8 70 70 E 7 11 30.62 1037 10 16.0934 0 0
7:55 pm 19:55 Clear 25 -4.1 17 -8.4 72 72 E 6 9 30.63 1037 10 16.0934 0 0
8:15 pm 20:15 Partly Cloudy 25 -4.1 17 -8.6 71 71 ENE 6 9 30.62 1037 10 16.0934 0 0
8:35 pm 20:35 Mostly Cloudy 24 -4.2 17 -8.3 73 73 ENE 6 9 30.63 1037 10 16.0934 0 0
8:55 pm 20:55 Cloudy 24 -4.3 17 -8.6 72 72 E 5 7 30.63 1037 10 16.0934 0 0
9:15 pm 21:15 Partly Cloudy 24 -4.7 17 -8.4 76 76 Calm 30.64 1037 10 16.0934 0 0
9:35 pm 21:35 Partly Cloudy 23 -4.8 16 -9 73 73 ESE 3 6 30.65 1038 10 16.0934 0 0
9:55 pm 21:55 Partly Cloudy 23 -5 16 -9 74 74 ESE 3 6 30.65 1038 10 16.0934 0 0
10:15 pm 22:15 Partly Cloudy 23 -5.1 17 -8.3 79 79 Calm 30.65 1038 10 16.0934 0 0
10:35 pm 22:35 Partly Cloudy 22 -5.4 17 -8.2 81 81 SE 3 6 30.64 1038 10 16.0934 0 0
10:55 pm 22:55 Clear 22 -5.5 17 -8.5 80 80 ESE 5 7 30.65 1038 10 16.0934 0 0
11:15 pm 23:15 Clear 23 -5.1 18 -7.9 81 81 ESE 6 9 30.63 1037 10 16.0934 0 0
11:35 pm 23:35 Clear 23 -5.1 18 -8 80 80 ESE 6 9 30.63 1037 10 16.0934 0 0
11:55 pm 23:55 Clear 23 -5.1 18 -8 80 80 ESE 9 15 30.62 1037 10 16.0934 0 0

Powered by AerisWeather